{"data":{"norad_id":56525,"intl_designator":"2023-065Y","name":"STARLINK-6329","alt_names":[],"object_type":"PAYLOAD","status":"ACTIVE","operator":null,"country":"US","launch_date":"2023-05-14","launch_site_code":"AFETR","launch_vehicle":null,"mission":null,"orbit_class":"UNKNOWN","rcs_meters":null,"size_class":null,"mass_kg":null,"dimensions":null,"purposes":["comms"],"wikipedia_slug":null,"has_3d_model":false,"image_url":null,"decayed_at":null,"tle_current":{"epoch":"2026-09-20T05:37:50.774880Z","epoch_age_seconds":137761,"freshness":"FRESH","line1":"1 56525U 23065Y   26263.23461545  .00000286  00000+0  19904-4 0  9990","line2":"2 56525  43.0032 204.7840 0001459 275.5275  84.5411 15.27577196186226","mean_motion":15.27577196,"eccentricity":0.0001459,"inclination_deg":43.0032,"raan_deg":204.784,"arg_perigee_deg":275.5275,"mean_anomaly_deg":84.5411,"bstar":1.9904e-5,"rev_number":18622,"period_min":94.266921748418,"perigee_km":482.05644396081,"apogee_km":484.05854051365,"semimajor_km":6861.1944922372,"source":"CELESTRAK","updated_at":"2026-09-21T09:00:33.473456Z"}}}